DELTA 1 DEB, 21366

Orbit data source: Space-Track

DELTA 1 DEB, 21366 is space debris in SSO originally from a launch on Thu, 12 Jun 1975 UTC launched from the Air Force Western Test Range (AFWTR). Debris objects in space refer to the collection of defunct objects orbiting the Earth. Examples of debris include non-operational satellites, rocket bodies, and fragments generated from explosions, collisions, or faulty payload assembly.

Loading next visibility...
Identifier
21366, 1975-052CL
Orbit
SSO
Country
Flag of USUS
Related business
Manufacturer
Unknown
Mission
Spacecraft
Bus & Motor
Unknown
Mass
Unknown
Launch date (UTC)
1975-06-12 (51 years ago)
Launch vehicle
Unknown
Launch site
Air Force Western Test Range (AFWTR)
Object type
Payload
Rocket body
Debris
Shape & HBR
Unknown shape, 0.2 m
Radar Cross Section
Medium (>0.1 m² and <1 m²)

Expand to show TLE details & history
Last TLE update: 16 hours ago

TLE from 16 hours ago
0 DELTA 1 DEB
1 21366U 75052CL  25349.87279367  .00000175  00000-0  37709-3 0  9991
2 21366  99.6704 209.4008 0022289  49.4703 323.1726 13.43748788693249
Epoch: 2025-12-15T20:56Z
TLE epoch observation values (Epoch: 2025-12-15T20:56:49.373Z)
Latitude
12.27044°
Longitude
168.31692°
Altitude
1,084.049 km
Speed
7.318 km/s
True Right ascension
13h 49m 09s
True Declination
12° 12' 08"
Sunlit
Object was in daylight at epoch
Visualization orbit readout
Latitude
Unknown
Longitude
Unknown
Altitude
Unknown
Speed
Unknown
Apparent Right ascension
Unknown
Apparent Declination
Unknown
Sunlit
N/A
Visualization observer readout
Local Sidereal Time
11:40:00
Azimuth
Unknown
Elevation
Unknown
Doppler factor
Unknown
Orbital elements
Apogee altitude
1,109.307 km
Perigee altitude
1,076.004 km
Semi-major axis
7,470.792 km
Eccentricity
0.00223
Inclination
99.6704°
RAAN
209.4008°
Arg. of periapsis
49.4703°
True anomaly
323.01916°
Mean anomaly
323.1726°
Eccentric anomaly
323.09592°
Mean motion
3.36119 °/min
Orbital period
107.1 mins
BSTAR
0.00037709
Loading maneuver chart data...
Computing Atmospheric mass density...

Documentation

Showing up to 5 results
|